This is the latest recevied weather packets stored in our database for station/object N5DGC. If no packets are shown the sender has not sent any weather packets the latest 10 day(s).
| Time | Temp. | Humidity | Pressure | Rain* | Wind** | Luminosity | Snow |
|---|---|---|---|---|---|---|---|
| 1787913651 | 18.33° C | 55% | 1244.3 hPa | 0 mm | - | 0 W/m² | - |
| 1787913350 | 18.33° C | 56% | 1244.4 hPa | 0 mm | - | 0 W/m² | - |
| 1787913046 | 18.33° C | 55% | 1244.2 hPa | 0 mm | - | 0 W/m² | - |
| 1787912743 | 18.33° C | 55% | 1244.1 hPa | 0 mm | - | 0 W/m² | - |
| 1787912439 | 18.89° C | 55% | 1244.3 hPa | 0 mm | - | 0 W/m² | - |
| 1787912137 | 18.89° C | 55% | 1244.2 hPa | 0 mm | - | 0 W/m² | - |
| 1787911833 | 18.33° C | 56% | 1244.2 hPa | 0 mm | - | 0 W/m² | - |
| 1787911527 | 18.33° C | 57% | 1244.2 hPa | 0 mm | - | 0 W/m² | - |
| 1787911227 | 18.33° C | 57% | 1244.3 hPa | 0 mm | - | 0 W/m² | - |
| 1787910924 | 18.33° C | 58% | 1244.2 hPa | 0 mm | - | 0 W/m² | - |
| 1787910620 | 18.33° C | 59% | 1244.2 hPa | 0 mm | - | 0 W/m² | - |
| 1787910314 | 18.33° C | 59% | 1243.9 hPa | 0 mm | - | 0 W/m² | - |
| 1787910009 | 18.89° C | 59% | 1244.1 hPa | 0 mm | - | 0 W/m² | - |
| 1787909707 | 18.89° C | 59% | 1244.2 hPa | 0 mm | - | 0 W/m² | - |
| 1787909406 | 19.44° C | 58% | 1244.1 hPa | 0 mm | - | 0 W/m² | - |
| 1787909102 | 19.44° C | 55% | 1243.9 hPa | 0 mm | - | 0 W/m² | - |
| 1787908802 | 19.44° C | 57% | 1244.1 hPa | 0 mm | - | 0 W/m² | - |
| 1787908497 | 19.44° C | 54% | 1244.1 hPa | 0 mm | - | 0 W/m² | - |
| 1787908196 | 19.44° C | 54% | 1243.7 hPa | 0 mm | - | 0 W/m² | - |
| 1787907898 | 19.44° C | 54% | 1243.8 hPa | 0 mm | - | 0 W/m² | - |
| 1787907592 | 20° C | 53% | 1244.2 hPa | 0 mm | - | 0 W/m² | - |
| 1787907290 | 20° C | 52% | 1244.1 hPa | 0 mm | - | 0 W/m² | - |
| 1787906987 | 20° C | 50% | 1243.9 hPa | 0 mm | - | 0 W/m² | - |
| 1787906684 | 20° C | 50% | 1243.8 hPa | 0 mm | - | 0 W/m² | - |
| 1787906379 | 20° C | 50% | 1243.9 hPa | 0 mm | - | 0 W/m² | - |
* Rain latest hour (hover to see other rain measurements)
** Current wind speed in m/s (hover to see current wind gust speed)